[[{"header":{"parameterUnit":"m.s-1","parameterCategory":1,"la1":30.2991,"la2":30.254,"lo1":-89.0895,"lo2":-89.0444,"dy":0.0017,"dx":0.0017,"nx":28,"ny":28,"refTime":"2025-03-19T09:00:00:Z","depth":0,"parameterNumber":2,"parameterNumberName":"U-component_of_WINDS"},"data":[0,0,0,0,0,0,0,0,0,0,0,0,0,0,0,0,0,0,0,0,0,0,0,0,0,0,0,0,0,0,0,0,0,0,0,0,0,0,0,0,0,0,0,0,0,0,0,0,0,0,0,0,0,0,0,0,0,0,6.7812,6.7814,0,6.795,6.7951,6.7953,6.7888,6.7885,6.7881,6.7878,6.8019,6.8026,6.8033,0,0,0,0,0,0,0,0,0,0,0,0,0,6.7496,6.7502,6.7812,6.7814,6.7816,6.795,6.7951,6.7953,6.7889,6.7885,6.788,6.7876,6.8017,6.8025,6.8033,0,0,0,0,0,0,0,0,0,0,0,0,0,6.7634,6.7504,6.7812,6.78,6.78,6.7949,6.7952,6.7954,6.789,6.7884,6.7879,6.7874,6.8014,6.8024,6.8035,6.8204,0,0,6.8067,6.8071,0,0,0,0,0,0,0,0,6.7626,6.7645,6.78,6.7801,6.7801,6.7896,6.7892,6.8038,6.7891,6.7856,6.7878,6.7872,6.7983,6.7995,6.8033,6.8211,6.8217,6.8068,6.8074,6.8079,6.8082,0,0,0,0,0,0,0,6.7617,6.7639,6.7867,6.7802,6.7803,6.7788,6.7802,6.7919,6.7947,6.7858,6.7854,6.7871,6.7982,6.8023,6.8035,6.8219,6.8067,6.8077,6.8083,6.8087,6.8547,6.8552,0,0,0,0,0,0,6.7607,6.7632,6.7862,6.7871,6.7699,6.7798,6.7813,6.7871,6.7945,6.7952,6.7875,6.7868,6.8007,6.8023,6.804,6.8246,6.8078,6.8088,6.8094,6.8541,6.8548,6.8554,0,0,0,0,0,0,6.7601,6.7628,6.7857,6.775,6.7778,6.7809,6.7875,6.7877,6.7917,6.7958,6.7963,6.7912,6.8004,6.8025,6.8165,6.825,6.8093,6.8103,6.8534,6.8543,6.8551,6.8657,0,0,0,0,0,0,6.7592,6.7626,6.769,6.7752,6.7784,6.7978,6.788,6.7883,6.7936,6.7927,6.7994,6.8,6.8001,6.8149,6.8175,6.8261,6.8111,6.8526,6.8538,6.8548,6.8646,6.8668,6.8687,0,0,0,0,0,6.7581,6.7714,6.7694,6.7722,6.7864,6.7983,6.8002,6.8001,6.7942,6.8008,6.8035,6.7997,6.8236,6.8164,6.8193,6.8283,6.8521,6.8535,6.8547,6.8636,6.8664,6.8687,0,0,0,0,0,0,6.7661,6.7722,6.77,6.7857,6.7916,6.7972,6.8054,6.8029,6.8105,6.8094,6.809,6.8105,6.825,6.828,6.8199,6.8453,6.837,6.8389,6.8428,6.8454,6.8474,6.8464,6.812,0,0,0,0,0,6.7697,6.7788,6.7836,6.797,6.8001,6.8023,6.8074,6.8069,6.8129,6.8154,6.8191,6.8251,6.834,6.8398,6.8482,6.865,6.8665,6.8727,6.8747,6.8764,6.8781,6.8875,6.8904,6.8598,6.8598,6.8597,0,0,6.7772,6.7816,6.7874,6.7987,6.8032,6.8128,6.8044,6.8147,6.8219,6.8169,6.8304,6.8333,6.8401,6.8556,6.8626,6.8585,6.8869,6.8781,6.8794,6.8802,6.8891,6.892,6.8946,6.8607,6.8605,6.8604,0,0,6.7957,6.8,6.8117,6.8164,6.8233,6.8248,6.8276,6.8338,6.8356,6.849,6.8456,6.8541,6.8694,6.8744,6.879,6.8998,6.8968,6.9026,6.9134,6.9225,6.925,6.9271,6.9347,6.9375,6.9043,6.9043,6.9043,0,6.8042,6.8184,6.818,6.8288,6.834,6.8301,6.8421,6.8467,6.856,6.8597,6.8551,6.8744,6.8786,6.8954,6.9005,6.9042,6.9076,6.9018,6.9246,6.9268,6.9288,6.936,6.9389,6.905,6.9049,6.9048,6.9048,0,6.8285,6.8385,6.8471,6.8564,6.8625,6.8738,6.8754,6.8817,6.8807,6.8827,6.8966,6.9016,6.9111,6.915,6.9141,6.9318,6.9291,6.9246,6.9162,6.9324,6.9392,6.942,6.9059,6.9057,6.9055,6.9053,0,0,6.8524,6.8615,6.8647,6.8689,6.8764,6.8841,6.8954,6.9047,6.9102,6.9168,6.9264,6.9396,6.9355,6.9407,6.9404,6.9484,6.9649,6.9429,6.9431,6.947,6.985,6.9884,6.9916,6.9629,6.9635,6.9639,6.9845,0,6.8716,6.8913,6.8915,6.9097,6.919,6.9155,6.9254,6.9311,6.9334,6.9417,6.9441,6.9535,6.9474,6.9505,6.9583,6.9612,6.9725,6.9597,6.9719,6.9724,6.9704,6.9951,6.9987,7.0179,6.9871,6.9876,6.9879,0,6.8966,6.9042,6.9233,6.9298,6.9337,6.9425,6.9512,6.9591,6.9657,6.9668,6.9728,6.9713,6.9829,6.9742,6.9904,6.9817,6.9868,6.989,6.9897,6.9909,6.9811,6.9971,7.024,7.0269,6.9921,6.9917,6.9914,0,6.9123,6.9273,6.9408,6.9445,6.9522,6.9586,6.9621,6.9682,6.9739,6.9815,6.9852,6.9941,6.999,7.006,7.007,7.0006,7.0234,7.0147,7.0247,7.0247,7.0297,7.0294,7.0578,7.0328,7.0327,7.0327,7.0326,0,6.9338,6.9457,6.948,6.9562,6.9695,6.9697,6.9829,6.9859,6.9914,7.0003,6.9979,7.0063,7.0071,7.0159,7.0168,7.0302,7.0324,7.0337,7.0338,7.034,7.0338,7.0373,7.036,7.0335,7.0333,7.0331,7.033,0,6.9536,6.9555,6.97,6.9763,6.9782,6.9877,6.9931,7.0011,7.0032,7.0145,7.0172,7.0205,7.0307,7.0324,7.0444,7.045,7.0611,7.0598,7.0589,7.0588,7.0688,7.0679,7.1005,7.1049,7.0769,7.0772,7.0774,0,6.9672,6.9763,6.9836,6.9895,6.9934,7.0027,7.0086,7.0092,7.0154,7.0237,7.0308,7.0408,7.0488,7.0653,7.0688,7.078,7.077,7.0878,7.0784,7.0784,7.0774,7.0769,7.0779,7.0897,7.09,7.0902,7.0904,0,6.9913,6.9919,7.0004,7.0094,7.0164,7.0235,7.0302,7.0351,7.0366,7.0438,7.0542,7.0605,7.0728,7.0828,7.0921,7.0958,7.0935,7.0934,7.0962,7.0965,7.0957,7.0965,7.064,7.0926,7.0924,7.0922,7.0921,7.092,7.0085,7.0166,7.023,7.0327,7.0378,7.0442,7.0521,7.0552,7.064,7.0741,7.0739,7.0855,7.0921,7.1042,7.1086,7.1178,7.1143,7.1183,7.1194,7.1204,7.1215,7.0942,7.1194,7.1194,7.1193,7.1193,7.1192,0,7.0326,7.0367,7.0455,7.0551,7.0627,7.0599,7.0672,7.0738,7.084,7.0903,7.0983,7.1105,7.1203,7.1247,7.1343,7.1408,7.14,7.1433,7.1429,7.1439,7.1239,7.1206,7.1438,7.1438,7.1438,7.1438,7.1438,7.1438,7.0461,7.0596,7.061,7.0771,7.0811,7.0923,7.0968,7.1028,7.1079,7.1216,7.1297,7.1325,7.1381,7.1483,7.1572,7.1582,7.162,7.1658,7.1664,7.1477,7.1452,7.1428,7.1397,7.1666,7.1666,7.1856,7.1858,7.1859]},{"header":{"parameterUnit":"m.s-1","parameterCategory":1,"la1":30.2991,"la2":30.254,"lo1":-89.0895,"lo2":-89.0444,"dy":0.0017,"dx":0.0017,"nx":28,"ny":28,"refTime":"2025-03-19T09:00:00:Z","depth":0,"parameterNumber":3,"parameterNumberName":"V-component_of_WINDS"},"data":[0,0,0,0,0,0,0,0,0,0,0,0,0,0,0,0,0,0,0,0,0,0,0,0,0,0,0,0,0,0,0,0,0,0,0,0,0,0,0,0,0,0,0,0,0,0,0,0,0,0,0,0,0,0,0,0,0,0,-7.1467,-7.147,0,-7.1704,-7.1707,-7.1709,-7.17,-7.1697,-7.1694,-7.169,-7.1932,-7.1941,-7.1951,0,0,0,0,0,0,0,0,0,0,0,0,0,-7.1008,-7.1017,-7.1467,-7.147,-7.1473,-7.1703,-7.1707,-7.171,-7.1701,-7.1697,-7.1693,-7.1689,-7.1929,-7.194,-7.1951,0,0,0,0,0,0,0,0,0,0,0,0,0,-7.1223,-7.102,-7.1467,-7.1496,-7.1501,-7.1703,-7.1707,-7.1711,-7.1702,-7.1697,-7.1692,-7.1687,-7.1925,-7.1939,-7.1953,-7.214,0,0,-7.1997,-7.2003,0,0,0,0,0,0,0,0,-7.121,-7.1239,-7.1489,-7.1495,-7.1501,-7.1667,-7.1633,-7.1855,-7.1703,-7.1626,-7.169,-7.1685,-7.1848,-7.1868,-7.1923,-7.2151,-7.2162,-7.1998,-7.2006,-7.2013,-7.2017,0,0,0,0,0,0,0,-7.1196,-7.1229,-7.1561,-7.1493,-7.15,-7.1498,-7.1523,-7.1675,-7.1762,-7.1632,-7.1632,-7.166,-7.185,-7.191,-7.1929,-7.2165,-7.1997,-7.201,-7.2019,-7.2024,-7.2562,-7.2567,0,0,0,0,0,0,-7.1174,-7.1217,-7.1553,-7.1568,-7.134,-7.151,-7.1538,-7.1619,-7.176,-7.1777,-7.1664,-7.1659,-7.1888,-7.1912,-7.1937,-7.2168,-7.2012,-7.2026,-7.2034,-7.2556,-7.2563,-7.2569,0,0,0,0,0,0,-7.1165,-7.1204,-7.1544,-7.1393,-7.1436,-7.1524,-7.1614,-7.1626,-7.1686,-7.1784,-7.1799,-7.1709,-7.1885,-7.1917,-7.2091,-7.2176,-7.2032,-7.2045,-7.2549,-7.2558,-7.2566,-7.2628,0,0,0,0,0,0,-7.1151,-7.1201,-7.1273,-7.1394,-7.1444,-7.1693,-7.1619,-7.1634,-7.171,-7.1706,-7.183,-7.1846,-7.1883,-7.2069,-7.2105,-7.2193,-7.2056,-7.2542,-7.2553,-7.2563,-7.2619,-7.2638,-7.2654,0,0,0,0,0,-7.1135,-7.128,-7.1276,-7.1317,-7.1535,-7.1697,-7.1726,-7.1766,-7.1717,-7.1791,-7.1854,-7.1842,-7.2161,-7.2087,-7.2127,-7.2221,-7.2537,-7.255,-7.2563,-7.2611,-7.2634,-7.2654,0,0,0,0,0,0,-7.1165,-7.1296,-7.1294,-7.1482,-7.1579,-7.1696,-7.1789,-7.1789,-7.1901,-7.1892,-7.1936,-7.1965,-7.2139,-7.2197,-7.2112,-7.2411,-7.2343,-7.2364,-7.2366,-7.2389,-7.2406,-7.2389,-7.2068,0,0,0,0,0,-7.1194,-7.1315,-7.1423,-7.1579,-7.1627,-7.17,-7.1772,-7.1795,-7.1897,-7.1938,-7.2014,-7.2113,-7.2236,-7.2315,-7.2433,-7.2628,-7.2656,-7.2712,-7.2729,-7.2743,-7.2761,-7.2871,-7.2898,-7.2611,-7.2611,-7.2611,0,0,-7.1254,-7.1341,-7.1414,-7.1587,-7.1665,-7.179,-7.1734,-7.1868,-7.1962,-7.1958,-7.2126,-7.2186,-7.23,-7.2485,-7.257,-7.2539,-7.2847,-7.276,-7.277,-7.2781,-7.2887,-7.2914,-7.2938,-7.262,-7.2619,-7.2617,0,0,-7.1428,-7.1505,-7.1644,-7.1724,-7.1843,-7.189,-7.1924,-7.2042,-7.2082,-7.2252,-7.2252,-7.2364,-7.2574,-7.2656,-7.2725,-7.2933,-7.2927,-7.297,-7.3062,-7.3168,-7.319,-7.321,-7.3286,-7.3312,-7.2987,-7.2988,-7.2988,0,-7.1487,-7.1675,-7.1716,-7.1852,-7.1928,-7.1932,-7.2074,-7.2149,-7.23,-7.2354,-7.2316,-7.2582,-7.2658,-7.2864,-7.2915,-7.297,-7.3011,-7.2956,-7.3184,-7.3204,-7.3224,-7.3297,-7.3325,-7.2992,-7.2992,-7.2991,-7.2991,0,-7.1744,-7.1875,-7.1973,-7.212,-7.2208,-7.2346,-7.2408,-7.2493,-7.2508,-7.256,-7.2735,-7.2827,-7.2965,-7.3016,-7.3032,-7.3225,-7.3202,-7.3174,-7.3106,-7.3255,-7.3324,-7.3352,-7.2999,-7.2997,-7.2996,-7.2995,0,0,-7.1942,-7.2112,-7.2147,-7.2215,-7.2347,-7.2449,-7.2588,-7.2724,-7.2797,-7.2901,-7.302,-7.3199,-7.3174,-7.3253,-7.3278,-7.3371,-7.3532,-7.3332,-7.3336,-7.3367,-7.3753,-7.3773,-7.3805,-7.3529,-7.3535,-7.3539,-7.3744,0,-7.2131,-7.2378,-7.2419,-7.2636,-7.2758,-7.2765,-7.2886,-7.2981,-7.3034,-7.3145,-7.3203,-7.333,-7.3288,-7.3336,-7.3428,-7.3493,-7.361,-7.3479,-7.3641,-7.3646,-7.3613,-7.3841,-7.3863,-7.4051,-7.3771,-7.3775,-7.3779,0,-7.2383,-7.2496,-7.2725,-7.2843,-7.2896,-7.3004,-7.3134,-7.324,-7.3348,-7.3381,-7.347,-7.3485,-7.3631,-7.3557,-7.3759,-7.3669,-7.3738,-7.378,-7.3789,-7.3806,-7.3722,-7.3865,-7.4112,-7.4141,-7.3821,-7.3818,-7.3815,0,-7.2506,-7.2715,-7.288,-7.2938,-7.3079,-7.3156,-7.3218,-7.3322,-7.3402,-7.3515,-7.3567,-7.3695,-7.3766,-7.3865,-7.3915,-7.3856,-7.4115,-7.4044,-7.4146,-7.4145,-7.42,-7.4196,-7.4463,-7.4243,-7.4243,-7.4242,-7.4242,0,-7.2713,-7.2853,-7.2938,-7.3039,-7.3197,-7.3244,-7.34,-7.346,-7.3553,-7.3667,-7.368,-7.3787,-7.3846,-7.3962,-7.4002,-7.4164,-7.4196,-7.4226,-7.4235,-7.4226,-7.4222,-7.4272,-7.426,-7.425,-7.4248,-7.4247,-7.4245,0,-7.2877,-7.2939,-7.312,-7.324,-7.3273,-7.3385,-7.3488,-7.3587,-7.364,-7.3784,-7.3821,-7.3904,-7.4042,-7.4102,-7.427,-7.4297,-7.4484,-7.4483,-7.4447,-7.4451,-7.4549,-7.454,-7.4858,-7.4903,-7.4652,-7.4655,-7.4657,0,-7.3005,-7.3114,-7.3246,-7.3324,-7.3389,-7.3513,-7.3596,-7.3647,-7.3732,-7.3865,-7.3949,-7.4086,-7.4199,-7.4419,-7.4495,-7.4624,-7.4627,-7.473,-7.4647,-7.4634,-7.4631,-7.4624,-7.4636,-7.4745,-7.4747,-7.4749,-7.4751,0,-7.3227,-7.3253,-7.3371,-7.3501,-7.3598,-7.3703,-7.3805,-7.3868,-7.3935,-7.403,-7.4171,-7.4259,-7.4432,-7.457,-7.4705,-7.4769,-7.4773,-7.4777,-7.4808,-7.4799,-7.4775,-7.4791,-7.449,-7.4769,-7.4767,-7.4766,-7.4765,-7.4764,-7.3378,-7.3476,-7.3585,-7.3716,-7.3799,-7.3895,-7.3995,-7.4061,-7.418,-7.4325,-7.4348,-7.4499,-7.4607,-7.4789,-7.4859,-7.4978,-7.4953,-7.4997,-7.5008,-7.5019,-7.5026,-7.4755,-7.5003,-7.5002,-7.5002,-7.5002,-7.5001,0,-7.3602,-7.3673,-7.3793,-7.3936,-7.4041,-7.4035,-7.4148,-7.4236,-7.4369,-7.4469,-7.4581,-7.4744,-7.4878,-7.4965,-7.51,-7.5179,-7.5184,-7.5213,-7.5208,-7.5224,-7.504,-7.5,-7.5207,-7.5207,-7.5207,-7.5207,-7.5207,-7.5207,-7.373,-7.3896,-7.3935,-7.4142,-7.4212,-7.4361,-7.4426,-7.4515,-7.4596,-7.4778,-7.4889,-7.4945,-7.5042,-7.5185,-7.5308,-7.533,-7.538,-7.541,-7.5431,-7.5258,-7.5236,-7.5216,-7.5179,-7.542,-7.5421,-7.5606,-7.5608,-7.5609]}]]